,,,PA_Meas_PMT16A,,PR_Meas_QMR101_102,,RH_Meas_QMH101,,SR_Meas_QMS101,,TA_Meas_QMH101,,GenWind,,GenWind,
date,time,status,PA,status,PR,status,RH,status,SR,status,TA,status,DirAvg,status,SpdAvg,
2009-03-26, 00:00:04,VALID,1006.47,VALID,0,VALID,95.3152,VALID,0,VALID,22.7871,VALID,9,VALID,0.00429688,
2009-03-26, 00:01:04,VALID,1006.42,VALID,0,VALID,95.3076,VALID,0,VALID,22.8066,VALID,37,VALID,0.517969,
2009-03-26, 00:02:04,VALID,1006.4,VALID,0,VALID,95.3152,VALID,0,VALID,22.826,VALID,88,VALID,0.653516,
2009-03-26, 00:03:04,VALID,1006.35,VALID,0,VALID,95.3229,VALID,0,VALID,22.8649,VALID,98,VALID,0.541016,
2009-03-26, 00:04:04,VALID,1006.32,VALID,0,VALID,95.3534,VALID,0,VALID,22.8649,VALID,118,VALID,0.679688,
2009-03-26, 00:05:04,VALID,1006.29,VALID,0,VALID,95.3457,VALID,0,VALID,22.8649,VALID,110,VALID,0.533203,
2009-03-26, 00:06:04,VALID,1006.26,VALID,0,VALID,95.3229,VALID,0,VALID,22.8455,VALID,104,VALID,0.364453,
2009-03-26, 00:07:04,VALID,1006.28,VALID,0,VALID,95.3229,VALID,0,VALID,22.8278,VALID,57,VALID,0.378516,
2009-03-26, 00:08:04,VALID,1006.28,VALID,0,VALID,95.3229,VALID,0,VALID,22.8083,VALID,51,VALID,0.658203,
2009-03-26, 00:09:04,VALID,1006.29,VALID,0,VALID,95.3076,VALID,0,VALID,22.8066,VALID,42,VALID,0.33125,
2009-03-26, 00:10:04,VALID,1006.26,VALID,0,VALID,95.3305,VALID,0,VALID,22.8472,VALID,42,VALID,0.101563,
2009-03-26, 00:11:04,VALID,1006.25,VALID,0,VALID,95.3381,VALID,0,VALID,22.8066,VALID,42,VALID,0.220313,
2009-03-26, 00:12:04,VALID,1006.23,VALID,0,VALID,95.3381,VALID,0,VALID,22.8066,VALID,42,VALID,0.209375,
2009-03-26, 00:13:04,VALID,1006.2,VALID,0,VALID,95.3152,VALID,0,VALID,22.7659,VALID,72,VALID,0.526172,
2009-03-26, 00:14:04,VALID,1006.22,VALID,0,VALID,95.3534,VALID,0,VALID,22.7465,VALID,98,VALID,0.645703,
2009-03-26, 00:15:04,VALID,1006.2,VALID,0,VALID,95.3305,VALID,0,VALID,22.7677,VALID,103,VALID,0.473828,
2009-03-26, 00:16:04,VALID,1006.21,VALID,0,VALID,95.3457,VALID,0,VALID,22.7677,VALID,103,VALID,0.0449219,
2009-03-26, 00:17:04,VALID,1006.21,VALID,0,VALID,95.3534,VALID,0,VALID,22.7482,VALID,103,VALID,0.295312,
2009-03-26, 00:18:04,VALID,1006.21,VALID,0,VALID,95.3229,VALID,0,VALID,22.7287,VALID,103,VALID,0.517578,
2009-03-26, 00:19:04,VALID,1006.19,VALID,0,VALID,95.3305,VALID,0,VALID,22.7287,VALID,103,VALID,0.608594,
2009-03-26, 00:20:04,VALID,1006.18,VALID,0,VALID,95.3229,VALID,0,VALID,22.7287,VALID,100,VALID,0.506641,
2009-03-26, 00:21:04,VALID,1006.14,VALID,0,VALID,95.3229,VALID,0,VALID,22.7287,VALID,103,VALID,0.667578,
2009-03-26, 00:22:04,VALID,1006.11,VALID,0,VALID,95.3305,VALID,0,VALID,22.7677,VALID,116,VALID,0.625391,
2009-03-26, 00:23:04,VALID,1006.13,VALID,0,VALID,95.3457,VALID,0,VALID,22.7287,VALID,113,VALID,0.705469,
2009-03-26, 00:24:04,VALID,1006.11,VALID,0,VALID,95.3534,VALID,0,VALID,22.7482,VALID,109,VALID,0.297656,
2009-03-26, 00:25:04,VALID,1006.1,VALID,0,VALID,95.361,VALID,0,VALID,22.7677,VALID,109,VALID,0.337891,
2009-03-26, 00:26:04,VALID,1006.09,VALID,0,VALID,95.3686,VALID,0,VALID,22.7888,VALID,109,VALID,0.367188,
2009-03-26, 00:27:04,VALID,1006.07,VALID,0,VALID,95.3763,VALID,0,VALID,22.7677,VALID,104,VALID,0.696484,
2009-03-26, 00:28:04,VALID,1006.12,VALID,0,VALID,95.3686,VALID,0,VALID,22.7694,VALID,77,VALID,0.351172,
2009-03-26, 00:29:04,VALID,1006.08,VALID,0,VALID,95.3763,VALID,0,VALID,22.7711,VALID,77,VALID,0.500391,
2009-03-26, 00:30:04,VALID,1006.13,VALID,0,VALID,95.3686,VALID,0,VALID,22.7499,VALID,77,VALID,0.186328,
2009-03-26, 00:31:04,VALID,1006.12,VALID,0,VALID,95.361,VALID,0,VALID,22.7287,VALID,77,VALID,0,
2009-03-26, 00:32:04,VALID,1006.15,VALID,0,VALID,95.361,VALID,0,VALID,22.7093,VALID,77,VALID,0.000390625,
2009-03-26, 00:33:04,VALID,1006.17,VALID,0,VALID,95.361,VALID,0,VALID,22.7093,VALID,47,VALID,0.515234,
2009-03-26, 00:34:04,VALID,1006.16,VALID,0,VALID,95.361,VALID,0,VALID,22.7093,VALID,47,VALID,0.360938,
2009-03-26, 00:35:04,VALID,1006.18,VALID,0,VALID,95.361,VALID,0,VALID,22.7287,VALID,47,VALID,0.45625,
2009-03-26, 00:36:04,VALID,1006.19,VALID,0,VALID,95.3763,VALID,0,VALID,22.7482,VALID,47,VALID,0.0570313,
2009-03-26, 00:37:04,VALID,1006.19,VALID,0,VALID,95.3915,VALID,0,VALID,22.7677,VALID,47,VALID,0,
2009-03-26, 00:38:04,VALID,1006.19,VALID,0,VALID,95.3915,VALID,0,VALID,22.7871,VALID,47,VALID,0,
2009-03-26, 00:39:04,VALID,1006.18,VALID,0,VALID,95.4144,VALID,0,VALID,22.8472,VALID,47,VALID,0,
2009-03-26, 00:40:04,VALID,1006.17,VALID,0,VALID,95.422,VALID,0,VALID,22.8472,VALID,47,VALID,0,
2009-03-26, 00:41:04,VALID,1006.17,VALID,0,VALID,95.4526,VALID,0,VALID,22.8455,VALID,47,VALID,0,
2009-03-26, 00:42:04,VALID,1006.15,VALID,0,VALID,95.4373,VALID,0,VALID,22.8879,VALID,47,VALID,0,
2009-03-26, 00:43:04,VALID,1006.16,VALID,0,VALID,95.4297,VALID,0,VALID,22.826,VALID,47,VALID,0,
2009-03-26, 00:44:04,VALID,1006.16,VALID,0,VALID,95.422,VALID,0,VALID,22.8455,VALID,23,VALID,0,
2009-03-26, 00:45:04,VALID,1006.18,VALID,0,VALID,95.422,VALID,0,VALID,22.9251,VALID,21,VALID,0.541406,
2009-03-26, 00:46:04,VALID,1006.19,VALID,0,VALID,95.4297,VALID,0,VALID,22.9233,VALID,14,VALID,0.603125,
2009-03-26, 00:47:04,VALID,1006.2,VALID,0,VALID,95.4449,VALID,0,VALID,22.9021,VALID,8,VALID,0.385938,
2009-03-26, 00:48:04,VALID,1006.16,VALID,0,VALID,95.4449,VALID,0,VALID,22.9233,VALID,8,VALID,0.314453,
2009-03-26, 00:49:04,VALID,1006.19,VALID,0,VALID,95.4449,VALID,0,VALID,22.964,VALID,7,VALID,0,
2009-03-26, 00:50:04,VALID,1006.19,VALID,0,VALID,95.4602,VALID,0,VALID,22.9817,VALID,1,VALID,0.363281,
2009-03-26, 00:51:04,VALID,1006.18,VALID,0,VALID,95.4602,VALID,0,VALID,23.0012,VALID,360,VALID,0.157422,
2009-03-26, 00:52:04,VALID,1006.19,VALID,0,VALID,95.4678,VALID,0,VALID,23.0012,VALID,360,VALID,0,
2009-03-26, 00:53:04,VALID,1006.19,VALID,0,VALID,95.4678,VALID,0,VALID,23.0613,VALID,360,VALID,0.155859,
2009-03-26, 00:54:04,VALID,1006.2,VALID,0,VALID,95.4602,VALID,0,VALID,23.0595,VALID,360,VALID,0.0925781,
2009-03-26, 00:55:04,VALID,1006.21,VALID,0,VALID,95.4526,VALID,0,VALID,23.0401,VALID,360,VALID,0,
2009-03-26, 00:56:04,VALID,1006.2,VALID,0,VALID,95.4449,VALID,0,VALID,23.0595,VALID,360,VALID,0.373828,
2009-03-26, 00:57:04,VALID,1006.19,VALID,0,VALID,95.4678,VALID,0,VALID,23.0595,VALID,360,VALID,0.0640625,
2009-03-26, 00:58:04,VALID,1006.17,VALID,0,VALID,95.4526,VALID,0,VALID,23.0595,VALID,359,VALID,0.237891,
2009-03-26, 00:59:04,VALID,1006.17,VALID,0,VALID,95.4449,VALID,0,VALID,23.0613,VALID,359,VALID,0.0710938,
2009-03-26, 01:00:04,VALID,1006.1,VALID,0,VALID,95.4144,VALID,0,VALID,23.0401,VALID,359,VALID,0,
2009-03-26, 01:01:04,VALID,1006.12,VALID,0,VALID,95.422,VALID,0,VALID,23.0418,VALID,359,VALID,0,
2009-03-26, 01:02:04,VALID,1006.12,VALID,0,VALID,95.422,VALID,0,VALID,23.0206,VALID,359,VALID,0,
2009-03-26, 01:03:04,VALID,1006.09,VALID,0,VALID,95.4297,VALID,0,VALID,23.0418,VALID,359,VALID,0,
2009-03-26, 01:04:04,VALID,1006.06,VALID,0,VALID,95.4297,VALID,0,VALID,23.0401,VALID,359,VALID,0,
2009-03-26, 01:05:04,VALID,1006.04,VALID,0,VALID,95.4144,VALID,0,VALID,23.0613,VALID,359,VALID,0.486719,
2009-03-26, 01:06:04,VALID,1006.03,VALID,0,VALID,95.4297,VALID,0,VALID,23.1002,VALID,359,VALID,0.299609,
2009-03-26, 01:07:04,VALID,1006.04,VALID,0,VALID,95.4297,VALID,0,VALID,23.079,VALID,359,VALID,0.0351563,
2009-03-26, 01:08:04,VALID,1006.05,VALID,0,VALID,95.422,VALID,0,VALID,23.0595,VALID,359,VALID,0.315625,
2009-03-26, 01:09:04,VALID,1006.05,VALID,0,VALID,95.422,VALID,0,VALID,23.0401,VALID,359,VALID,0.0566406,
2009-03-26, 01:10:04,VALID,1006.09,VALID,0,VALID,95.422,VALID,0,VALID,23.0401,VALID,359,VALID,0.171094,
2009-03-26, 01:11:04,VALID,1006.08,VALID,0,VALID,95.4068,VALID,0,VALID,23.0401,VALID,359,VALID,0,
2009-03-26, 01:12:04,VALID,1006.09,VALID,0,VALID,95.4144,VALID,0,VALID,23.0613,VALID,359,VALID,0,
2009-03-26, 01:13:04,VALID,1006.09,VALID,0,VALID,95.422,VALID,0,VALID,23.0401,VALID,359,VALID,0.00429688,
2009-03-26, 01:14:04,VALID,1006.11,VALID,0,VALID,95.4373,VALID,0,VALID,23.0401,VALID,359,VALID,0.0347656,
2009-03-26, 01:15:04,VALID,1006.1,VALID,0,VALID,95.422,VALID,0,VALID,23.0401,VALID,359,VALID,0,
2009-03-26, 01:16:04,VALID,1006.08,VALID,0,VALID,95.4373,VALID,0,VALID,23.0401,VALID,359,VALID,0,
2009-03-26, 01:17:04,VALID,1006.09,VALID,0,VALID,95.4297,VALID,0,VALID,23.0807,VALID,359,VALID,0,
2009-03-26, 01:18:04,VALID,1006.09,VALID,0,VALID,95.4373,VALID,0,VALID,23.1002,VALID,359,VALID,0,
2009-03-26, 01:19:04,VALID,1006.11,VALID,0,VALID,95.4449,VALID,0,VALID,23.1002,VALID,359,VALID,0.202734,
2009-03-26, 01:20:04,VALID,1006.09,VALID,0,VALID,95.4297,VALID,0,VALID,23.0807,VALID,359,VALID,0.183203,
2009-03-26, 01:21:04,VALID,1006.1,VALID,0,VALID,95.4144,VALID,0,VALID,23.0595,VALID,359,VALID,0.269531,
2009-03-26, 01:22:04,VALID,1006.08,VALID,0,VALID,95.4297,VALID,0,VALID,23.0807,VALID,359,VALID,0.244141,
2009-03-26, 01:23:04,VALID,1006.1,VALID,0,VALID,95.4373,VALID,0,VALID,23.0401,VALID,359,VALID,0.127734,
2009-03-26, 01:24:04,VALID,1006.11,VALID,0,VALID,95.422,VALID,0,VALID,23.0613,VALID,359,VALID,0,
2009-03-26, 01:25:04,VALID,1006.06,VALID,0,VALID,95.422,VALID,0,VALID,23.0613,VALID,359,VALID,0,
2009-03-26, 01:26:04,VALID,1006.08,VALID,0,VALID,95.4144,VALID,0,VALID,23.0206,VALID,359,VALID,0,
2009-03-26, 01:27:04,VALID,1006.06,VALID,0,VALID,95.422,VALID,0,VALID,23.0401,VALID,359,VALID,0,
2009-03-26, 01:28:04,VALID,1006.04,VALID,0,VALID,95.4449,VALID,0,VALID,23.0613,VALID,359,VALID,0,
2009-03-26, 01:29:04,VALID,1006,VALID,0,VALID,95.4449,VALID,0,VALID,23.0613,VALID,359,VALID,0,
2009-03-26, 01:30:04,VALID,1006.01,VALID,0,VALID,95.4373,VALID,0,VALID,23.0613,VALID,359,VALID,0.0378906,
2009-03-26, 01:31:04,VALID,1005.99,VALID,0,VALID,95.4373,VALID,0,VALID,23.0401,VALID,359,VALID,0.0410156,
2009-03-26, 01:32:04,VALID,1006,VALID,0,VALID,95.4449,VALID,0,VALID,23.0418,VALID,359,VALID,0,
2009-03-26, 01:33:04,VALID,1006.03,VALID,0,VALID,95.4373,VALID,0,VALID,23.0206,VALID,359,VALID,0.116016,
2009-03-26, 01:34:04,VALID,1005.99,VALID,0,VALID,95.4373,VALID,0,VALID,23.0012,VALID,359,VALID,0.356641,
2009-03-26, 01:35:04,VALID,1006.01,VALID,0,VALID,95.4297,VALID,0,VALID,23.0206,VALID,359,VALID,0.533594,
2009-03-26, 01:36:04,VALID,1006.02,VALID,0,VALID,95.4449,VALID,0,VALID,23.0206,VALID,359,VALID,0.489062,
2009-03-26, 01:37:04,VALID,1006.05,VALID,0,VALID,95.4602,VALID,0,VALID,23.0206,VALID,359,VALID,0.261719,
2009-03-26, 01:38:04,VALID,1006.03,VALID,0,VALID,95.4449,VALID,0,VALID,23.0418,VALID,359,VALID,0,
2009-03-26, 01:39:04,VALID,1006.03,VALID,0,VALID,95.4526,VALID,0,VALID,23.0418,VALID,359,VALID,0,
2009-03-26, 01:40:04,VALID,1006.04,VALID,0,VALID,95.4373,VALID,0,VALID,23.0418,VALID,359,VALID,0.242969,
2009-03-26, 01:41:04,VALID,1006.03,VALID,0,VALID,95.4449,VALID,0,VALID,23.0613,VALID,359,VALID,0.298438,
2009-03-26, 01:42:04,VALID,1006.02,VALID,0,VALID,95.4678,VALID,0,VALID,23.0401,VALID,359,VALID,0.3375,
2009-03-26, 01:43:04,VALID,1005.98,VALID,0,VALID,95.4449,VALID,0,VALID,23.0807,VALID,359,VALID,0.142188,
2009-03-26, 01:44:04,VALID,1005.98,VALID,0,VALID,95.4449,VALID,0,VALID,23.0595,VALID,359,VALID,0.248828,
2009-03-26, 01:45:04,VALID,1005.95,VALID,0,VALID,95.4831,VALID,0,VALID,23.0595,VALID,359,VALID,0,
2009-03-26, 01:46:04,VALID,1005.91,VALID,0,VALID,95.4678,VALID,0,VALID,23.079,VALID,359,VALID,0,
2009-03-26, 01:47:04,VALID,1005.91,VALID,0,VALID,95.4526,VALID,0,VALID,23.0984,VALID,359,VALID,0,
2009-03-26, 01:48:04,VALID,1005.87,VALID,0,VALID,95.4831,VALID,0,VALID,23.0984,VALID,359,VALID,0,
2009-03-26, 01:49:04,VALID,1005.88,VALID,0,VALID,95.4678,VALID,0,VALID,23.079,VALID,359,VALID,0,
2009-03-26, 01:50:04,VALID,1005.87,VALID,0,VALID,95.4831,VALID,0,VALID,23.079,VALID,359,VALID,0,
2009-03-26, 01:51:04,VALID,1005.83,VALID,0,VALID,95.4678,VALID,0,VALID,23.1002,VALID,359,VALID,0,
2009-03-26, 01:52:04,VALID,1005.79,VALID,0,VALID,95.4602,VALID,0,VALID,23.079,VALID,359,VALID,0,
2009-03-26, 01:53:04,VALID,1005.8,VALID,0,VALID,95.4678,VALID,0,VALID,23.0807,VALID,359,VALID,0,
2009-03-26, 01:54:04,VALID,1005.8,VALID,0,VALID,95.4678,VALID,0,VALID,23.0807,VALID,359,VALID,0,
2009-03-26, 01:55:04,VALID,1005.8,VALID,0,VALID,95.4831,VALID,0,VALID,23.0595,VALID,359,VALID,0,
2009-03-26, 01:56:04,VALID,1005.8,VALID,0,VALID,95.4831,VALID,0,VALID,23.079,VALID,359,VALID,0,
2009-03-26, 01:57:04,VALID,1005.81,VALID,0,VALID,95.4602,VALID,0,VALID,23.0595,VALID,359,VALID,0,
2009-03-26, 01:58:04,VALID,1005.78,VALID,0,VALID,95.4754,VALID,0,VALID,23.0595,VALID,359,VALID,0,
2009-03-26, 01:59:04,VALID,1005.8,VALID,0,VALID,95.4678,VALID,0,VALID,23.1002,VALID,359,VALID,0,
2009-03-26, 02:00:04,VALID,1005.8,VALID,0,VALID,95.4831,VALID,0,VALID,23.079,VALID,359,VALID,0,
2009-03-26, 02:01:04,VALID,1005.78,VALID,0,VALID,95.4831,VALID,0,VALID,23.1197,VALID,359,VALID,0,
2009-03-26, 02:02:04,VALID,1005.76,VALID,0,VALID,95.4831,VALID,0,VALID,23.1391,VALID,359,VALID,0,
2009-03-26, 02:03:04,VALID,1005.73,VALID,0,VALID,95.4983,VALID,0,VALID,23.1179,VALID,359,VALID,0,
2009-03-26, 02:04:04,VALID,1005.72,VALID,0,VALID,95.4831,VALID,0,VALID,23.1179,VALID,359,VALID,0,
2009-03-26, 02:05:04,VALID,1005.71,VALID,0,VALID,95.4831,VALID,0,VALID,23.1391,VALID,359,VALID,0.275,
2009-03-26, 02:06:04,VALID,1005.7,VALID,0,VALID,95.4983,VALID,0,VALID,23.1374,VALID,360,VALID,0.301953,
2009-03-26, 02:07:04,VALID,1005.68,VALID,0,VALID,95.4831,VALID,0,VALID,23.1568,VALID,352,VALID,0.120312,
2009-03-26, 02:08:04,VALID,1005.68,VALID,0,VALID,95.4983,VALID,0,VALID,23.1957,VALID,352,VALID,0.266797,
2009-03-26, 02:09:04,VALID,1005.7,VALID,0,VALID,95.4831,VALID,0,VALID,23.217,VALID,352,VALID,0.291797,
2009-03-26, 02:10:04,VALID,1005.71,VALID,0,VALID,95.4983,VALID,0,VALID,23.1975,VALID,352,VALID,0.277344,
2009-03-26, 02:11:04,VALID,1005.7,VALID,0,VALID,95.4907,VALID,0,VALID,23.1957,VALID,312,VALID,0.514844,
2009-03-26, 02:12:04,VALID,1005.68,VALID,0,VALID,95.4831,VALID,0,VALID,23.2364,VALID,288,VALID,0.0847656,
2009-03-26, 02:13:04,VALID,1005.65,VALID,0,VALID,95.4907,VALID,0,VALID,23.2152,VALID,314,VALID,0.363672,
2009-03-26, 02:14:04,VALID,1005.66,VALID,0,VALID,95.506,VALID,0,VALID,23.2754,VALID,314,VALID,0.20625,
2009-03-26, 02:15:04,VALID,1005.62,VALID,0,VALID,95.5136,VALID,0,VALID,23.2347,VALID,314,VALID,0.401172,
2009-03-26, 02:16:04,VALID,1005.62,VALID,0,VALID,95.4831,VALID,0,VALID,23.2559,VALID,317,VALID,0.129688,
2009-03-26, 02:17:04,VALID,1005.58,VALID,0,VALID,95.4831,VALID,0,VALID,23.2347,VALID,317,VALID,0.003125,
2009-03-26, 02:18:04,VALID,1005.56,VALID,0,VALID,95.4907,VALID,0,VALID,23.2364,VALID,317,VALID,0,
2009-03-26, 02:19:04,VALID,1005.53,VALID,0,VALID,95.4983,VALID,0,VALID,23.2152,VALID,317,VALID,0,
2009-03-26, 02:20:04,VALID,1005.53,VALID,0,VALID,95.4907,VALID,0,VALID,23.2364,VALID,317,VALID,0,
2009-03-26, 02:21:04,VALID,1005.51,VALID,0,VALID,95.4831,VALID,0,VALID,23.1957,VALID,317,VALID,0,
2009-03-26, 02:22:04,VALID,1005.47,VALID,0,VALID,95.4678,VALID,0,VALID,23.1957,VALID,317,VALID,0,
2009-03-26, 02:23:04,VALID,1005.45,VALID,0,VALID,95.4907,VALID,0,VALID,23.1975,VALID,317,VALID,0,
2009-03-26, 02:24:04,VALID,1005.4,VALID,0,VALID,95.4754,VALID,0,VALID,23.1975,VALID,317,VALID,0,
2009-03-26, 02:25:04,VALID,1005.4,VALID,0,VALID,95.4526,VALID,0,VALID,23.178,VALID,317,VALID,0,
2009-03-26, 02:26:04,VALID,1005.39,VALID,0,VALID,95.4831,VALID,0.100563,VALID,23.1356,VALID,317,VALID,0,
2009-03-26, 02:27:04,VALID,1005.35,VALID,0,VALID,95.4678,VALID,0.100563,VALID,23.1374,VALID,317,VALID,0,
2009-03-26, 02:28:04,VALID,1005.33,VALID,0,VALID,95.4831,VALID,0,VALID,23.1162,VALID,317,VALID,0,
2009-03-26, 02:29:04,VALID,1005.32,VALID,0,VALID,95.4602,VALID,0.100563,VALID,23.1162,VALID,317,VALID,0,
2009-03-26, 02:30:04,VALID,1005.29,VALID,0,VALID,95.4526,VALID,0,VALID,23.1179,VALID,317,VALID,0,
2009-03-26, 02:31:04,VALID,1005.26,VALID,0,VALID,95.4754,VALID,0.100563,VALID,23.0984,VALID,322,VALID,0.382031,
2009-03-26, 02:32:04,VALID,1005.26,VALID,0,VALID,95.4678,VALID,0.100563,VALID,23.0772,VALID,322,VALID,0,
2009-03-26, 02:33:04,VALID,1005.22,VALID,0,VALID,95.4678,VALID,0.100563,VALID,23.0984,VALID,322,VALID,0,
2009-03-26, 02:34:04,VALID,1005.22,VALID,0,VALID,95.4678,VALID,0.100563,VALID,23.0772,VALID,322,VALID,0.00234375,
2009-03-26, 02:35:04,VALID,1005.19,VALID,0,VALID,95.4678,VALID,0.100563,VALID,23.0772,VALID,322,VALID,0.126172,
2009-03-26, 02:36:04,VALID,1005.18,VALID,0,VALID,95.4678,VALID,0.100563,VALID,23.0383,VALID,322,VALID,0.0492188,
2009-03-26, 02:37:04,VALID,1005.17,VALID,0,VALID,95.4907,VALID,0.100563,VALID,23.0383,VALID,322,VALID,0.3875,
2009-03-26, 02:38:04,VALID,1005.16,VALID,0,VALID,95.4831,VALID,0.100563,VALID,23.0613,VALID,322,VALID,0.185547,
2009-03-26, 02:39:04,VALID,1005.14,VALID,0,VALID,95.4831,VALID,0.100563,VALID,23.0595,VALID,322,VALID,0.217969,
2009-03-26, 02:40:04,VALID,1005.15,VALID,0,VALID,95.4983,VALID,0.100563,VALID,23.079,VALID,322,VALID,0.332812,
2009-03-26, 02:41:04,VALID,1005.17,VALID,0,VALID,95.5136,VALID,0,VALID,23.0807,VALID,322,VALID,0.208594,
2009-03-26, 02:42:04,VALID,1005.15,VALID,0,VALID,95.506,VALID,0,VALID,23.0807,VALID,322,VALID,0.153906,
2009-03-26, 02:43:04,VALID,1005.15,VALID,0,VALID,95.5136,VALID,0,VALID,23.079,VALID,322,VALID,0,
2009-03-26, 02:44:04,VALID,1005.14,VALID,0,VALID,95.5212,VALID,0,VALID,23.0984,VALID,322,VALID,0,
2009-03-26, 02:45:04,VALID,1005.14,VALID,0,VALID,95.5136,VALID,0,VALID,23.1197,VALID,322,VALID,0,
2009-03-26, 02:46:04,VALID,1005.16,VALID,0,VALID,95.5288,VALID,0,VALID,23.1197,VALID,322,VALID,0,
2009-03-26, 02:47:04,VALID,1005.12,VALID,0,VALID,95.5136,VALID,0,VALID,23.0984,VALID,322,VALID,0,
2009-03-26, 02:48:04,VALID,1005.12,VALID,0,VALID,95.5136,VALID,0,VALID,23.1179,VALID,322,VALID,0,
2009-03-26, 02:49:04,VALID,1005.14,VALID,0,VALID,95.5212,VALID,0,VALID,23.1391,VALID,322,VALID,0,
2009-03-26, 02:50:04,VALID,1005.1,VALID,0,VALID,95.5288,VALID,0,VALID,23.1586,VALID,322,VALID,0,
2009-03-26, 02:51:04,VALID,1005.12,VALID,0,VALID,95.5212,VALID,0,VALID,23.1568,VALID,322,VALID,0,
2009-03-26, 02:52:04,VALID,1005.12,VALID,0,VALID,95.5212,VALID,0,VALID,23.178,VALID,322,VALID,0,
2009-03-26, 02:53:04,VALID,1005.14,VALID,0,VALID,95.506,VALID,0,VALID,23.1975,VALID,316,VALID,0,
2009-03-26, 02:54:04,VALID,1005.12,VALID,0,VALID,95.5365,VALID,0.100563,VALID,23.1745,VALID,308,VALID,0,
2009-03-26, 02:55:04,VALID,1005.14,VALID,0,VALID,95.5365,VALID,0,VALID,23.2577,VALID,308,VALID,0.00625,
2009-03-26, 02:56:04,VALID,1005.13,VALID,0,VALID,95.5517,VALID,0,VALID,23.2364,VALID,308,VALID,0.308984,
2009-03-26, 02:57:04,VALID,1005.13,VALID,0,VALID,95.5288,VALID,0,VALID,23.217,VALID,324,VALID,0.608984,
2009-03-26, 02:58:04,VALID,1005.15,VALID,0,VALID,95.5288,VALID,0,VALID,23.1957,VALID,336,VALID,0.464844,
2009-03-26, 02:59:04,VALID,1005.14,VALID,0,VALID,95.5441,VALID,0,VALID,23.2364,VALID,352,VALID,0.5375,
2009-03-26, 03:00:04,VALID,1005.14,VALID,0,VALID,95.4983,VALID,0,VALID,23.217,VALID,353,VALID,0.598047,
2009-03-26, 03:01:04,VALID,1005.15,VALID,0,VALID,95.5365,VALID,0,VALID,23.217,VALID,353,VALID,0.167578,
2009-03-26, 03:02:04,VALID,1005.14,VALID,0,VALID,95.5365,VALID,0,VALID,23.2347,VALID,356,VALID,0.721094,
2009-03-26, 03:03:04,VALID,1005.14,VALID,0,VALID,95.5288,VALID,0,VALID,23.2364,VALID,356,VALID,0.50625,
2009-03-26, 03:04:04,VALID,1005.18,VALID,0,VALID,95.5212,VALID,0,VALID,23.1957,VALID,355,VALID,0.499609,
2009-03-26, 03:05:04,VALID,1005.15,VALID,0,VALID,95.5441,VALID,0,VALID,23.2152,VALID,356,VALID,0.358203,
2009-03-26, 03:06:04,VALID,1005.14,VALID,0,VALID,95.5212,VALID,0,VALID,23.217,VALID,356,VALID,0.365234,
2009-03-26, 03:07:04,VALID,1005.15,VALID,0,VALID,95.5288,VALID,0,VALID,23.2347,VALID,356,VALID,0.0195313,
2009-03-26, 03:08:04,VALID,1005.11,VALID,0,VALID,95.5136,VALID,0,VALID,23.1957,VALID,356,VALID,0,
2009-03-26, 03:09:04,VALID,1005.08,VALID,0,VALID,95.5517,VALID,0,VALID,23.2152,VALID,356,VALID,0.197266,
2009-03-26, 03:10:04,VALID,1005.07,VALID,0,VALID,95.5288,VALID,0,VALID,23.1957,VALID,356,VALID,0.156641,
2009-03-26, 03:11:04,VALID,1005.07,VALID,0,VALID,95.506,VALID,0,VALID,23.1957,VALID,356,VALID,0.0105469,
2009-03-26, 03:12:04,VALID,1005.04,VALID,0,VALID,95.5365,VALID,0,VALID,23.1957,VALID,356,VALID,0,
2009-03-26, 03:13:04,VALID,1005.04,VALID,0,VALID,95.5365,VALID,0,VALID,23.217,VALID,356,VALID,0,
2009-03-26, 03:14:04,VALID,1005.04,VALID,0,VALID,95.5288,VALID,0,VALID,23.1763,VALID,356,VALID,0,
2009-03-26, 03:15:04,VALID,1005.03,VALID,0,VALID,95.5365,VALID,0,VALID,23.1957,VALID,356,VALID,0,
2009-03-26, 03:16:04,VALID,1005.03,VALID,0,VALID,95.5441,VALID,0,VALID,23.217,VALID,356,VALID,0,
2009-03-26, 03:17:04,VALID,1005.02,VALID,0,VALID,95.5441,VALID,0,VALID,23.1957,VALID,356,VALID,0,
2009-03-26, 03:18:04,VALID,1005.03,VALID,0,VALID,95.5288,VALID,0,VALID,23.217,VALID,356,VALID,0,
2009-03-26, 03:19:04,VALID,1005.02,VALID,0,VALID,95.5441,VALID,0,VALID,23.1957,VALID,356,VALID,0,
2009-03-26, 03:20:04,VALID,1004.99,VALID,0,VALID,95.5288,VALID,0,VALID,23.217,VALID,356,VALID,0,
2009-03-26, 03:21:04,VALID,1004.99,VALID,0,VALID,95.5441,VALID,0,VALID,23.217,VALID,356,VALID,0,
2009-03-26, 03:22:04,VALID,1004.99,VALID,0,VALID,95.5288,VALID,0,VALID,23.1957,VALID,356,VALID,0,
2009-03-26, 03:23:04,VALID,1004.97,VALID,0,VALID,95.5365,VALID,0,VALID,23.1957,VALID,356,VALID,0,
2009-03-26, 03:24:04,VALID,1004.99,VALID,0,VALID,95.5441,VALID,0,VALID,23.2364,VALID,356,VALID,0,
2009-03-26, 03:25:04,VALID,1004.97,VALID,0,VALID,95.5441,VALID,0,VALID,23.2364,VALID,356,VALID,0,
2009-03-26, 03:26:04,VALID,1004.97,VALID,0,VALID,95.5517,VALID,0,VALID,23.2152,VALID,356,VALID,0,
2009-03-26, 03:27:04,VALID,1004.98,VALID,0,VALID,95.5517,VALID,0,VALID,23.2364,VALID,356,VALID,0.175391,
2009-03-26, 03:28:04,VALID,1004.97,VALID,0,VALID,95.5517,VALID,0,VALID,23.2559,VALID,356,VALID,0.444531,
2009-03-26, 03:29:04,VALID,1004.98,VALID,0,VALID,95.5441,VALID,0,VALID,23.2347,VALID,356,VALID,0.321875,
2009-03-26, 03:30:05,VALID,1004.97,VALID,0,VALID,95.5517,VALID,0,VALID,23.2559,VALID,356,VALID,0.18125,
2009-03-26, 03:31:05,VALID,1004.97,VALID,0,VALID,95.5365,VALID,0,VALID,23.2754,VALID,356,VALID,0.261328,
2009-03-26, 03:32:05,VALID,1004.99,VALID,0,VALID,95.5594,VALID,0,VALID,23.2559,VALID,356,VALID,0.398438,
2009-03-26, 03:33:05,VALID,1005.01,VALID,0,VALID,95.5594,VALID,0,VALID,23.2559,VALID,352,VALID,0.54375,
2009-03-26, 03:34:05,VALID,1004.99,VALID,0,VALID,95.5517,VALID,0,VALID,23.2152,VALID,353,VALID,0.448047,
2009-03-26, 03:35:05,VALID,1005.02,VALID,0,VALID,95.5288,VALID,0,VALID,23.2364,VALID,353,VALID,0.0976563,
2009-03-26, 03:36:05,VALID,1005.01,VALID,0,VALID,95.5594,VALID,0,VALID,23.2754,VALID,292,VALID,0.429688,
2009-03-26, 03:37:05,VALID,1005,VALID,0,VALID,95.567,VALID,0,VALID,23.2948,VALID,287,VALID,0.498047,
2009-03-26, 03:38:05,VALID,1005.01,VALID,0,VALID,95.5517,VALID,0,VALID,23.3143,VALID,288,VALID,0.380469,
2009-03-26, 03:39:05,VALID,1005.02,VALID,0,VALID,95.5517,VALID,0,VALID,23.3125,VALID,288,VALID,0,
2009-03-26, 03:40:05,VALID,1005.04,VALID,0,VALID,95.5594,VALID,0,VALID,23.3337,VALID,288,VALID,0.034375,
2009-03-26, 03:41:05,VALID,1005.06,VALID,0,VALID,95.5822,VALID,0,VALID,23.3125,VALID,288,VALID,0.309766,
2009-03-26, 03:42:05,VALID,1005.09,VALID,0,VALID,95.5517,VALID,0,VALID,23.3125,VALID,288,VALID,0.237109,
2009-03-26, 03:43:05,VALID,1005.11,VALID,0,VALID,95.5517,VALID,0,VALID,23.3125,VALID,288,VALID,0.136328,
2009-03-26, 03:44:05,VALID,1005.12,VALID,0,VALID,95.5441,VALID,0,VALID,23.3337,VALID,288,VALID,0.216406,
2009-03-26, 03:45:05,VALID,1005.14,VALID,0,VALID,95.5517,VALID,0,VALID,23.332,VALID,288,VALID,0.0796875,
2009-03-26, 03:46:05,VALID,1005.13,VALID,0,VALID,95.5212,VALID,0,VALID,23.3337,VALID,288,VALID,0,
2009-03-26, 03:47:05,VALID,1005.15,VALID,0,VALID,95.5594,VALID,0,VALID,23.332,VALID,288,VALID,0.0824219,
2009-03-26, 03:48:05,VALID,1005.16,VALID,0,VALID,95.5517,VALID,0,VALID,23.3709,VALID,308,VALID,0.000390625,
2009-03-26, 03:49:05,VALID,1005.13,VALID,0,VALID,95.5517,VALID,0,VALID,23.3921,VALID,328,VALID,0.378906,
2009-03-26, 03:50:05,VALID,1005.14,VALID,0,VALID,95.5288,VALID,0,VALID,23.4328,VALID,328,VALID,0.225,